Location: Newark
(15.4608°S, 41.1635°W)
Time: 04:05:03
(UTC+00:00)

Envisat - Pass Details

Date: 21 June 2021
Orbit: 764 x 766 km, 98.2° (Epoch: 27 July)

Event Time Altitude Azimuth Distance (km) Brightness Sun altitude
Rises 07:05:31 0° 28° (NNE) 3,212 6.9 -28.9°
Reaches altitude 10° 07:07:55 10° 36° (NE) 2,292 6.1 -28.3°
Maximum altitude 07:12:37 40° 104° (ESE) 1,117 4.2 -27.3°
Enters shadow 07:16:10 17° 166° (SSE) 1,884 4.9 -26.5°
